Date String (YYYY-MM-DD hh:mm:ss) UTC,Instrument flags,absolute air pressure of the measurement (hPa),sample flow rate (lpm),inlet stack bypass flow (lpm),air temperature of the measurement (°C),ambient temperature measured by the external sensor (°C),aerosol sample conditioner tube jacket temperature (°C),OPC LED temperature (°C),internal box temperature (°C),relative humidity of the measurement (%),span deviation,mass concentration of particles derived from Lorenz-Mie calculation of OPC scattering (μg/m³),mass concentration of particles derived from Lorenz-Mie calculation of OPC scattering (μg/m³),mass concentration of particles derived from Lorenz-Mie calculation of OPC scattering (μg/m³)
DateTimeUTC,F1_M11,P_M11,Q1_M11,Q2_M11,T1_M11,T2_M11,T3_M11,T4_M11,T5_M11,U1_M11,ZSPAN_M11,X0_M11,X2_M11,X1_M11
2023-09-18 17:00:00,SystemResetWarning,0831.2,4.99,000.00,027.8,026.6,000.0,036.1,029.5,13.8,0000.0,0009.86,0003.53,0002.76
2023-09-18 17:01:00,SystemResetWarning,0831.2,4.99,000.00,027.8,025.6,000.0,036.0,029.1,14.2,0000.0,0009.97,0003.53,0002.74
2023-09-18 17:02:00,SystemResetWarning,0831.1,5.01,000.00,027.7,024.4,000.0,036.0,028.8,14.5,0000.0,0010.17,0003.54,0002.73
2023-09-18 17:03:00,SystemResetWarning,0831.1,5.02,000.00,027.6,024.4,000.0,035.9,028.9,14.9,0000.0,0010.08,0003.53,0002.72
2023-09-18 17:04:00,SystemResetWarning,0831.1,5.00,000.00,027.6,024.7,000.0,035.9,028.9,14.9,0000.0,0010.21,0003.56,0002.73
2023-09-18 17:05:00,SystemResetWarning,0831.1,5.00,000.00,027.5,025.0,000.0,035.9,029.0,14.2,0000.0,0010.26,0003.55,0002.73
2023-09-18 17:06:00,SystemResetWarning,0831.1,5.01,000.00,027.6,025.4,000.0,035.9,029.1,15.0,0000.0,0010.16,0003.54,0002.71
2023-09-18 17:07:00,SystemResetWarning,0831.1,5.00,000.00,027.6,025.7,000.0,035.9,029.1,15.6,0000.0,0010.53,0003.55,0002.70
2023-09-18 17:08:00,SystemResetWarning,0831.1,4.99,000.00,027.6,026.0,000.0,036.0,029.2,15.3,0000.0,0010.88,0003.52,0002.69
2023-09-18 17:09:00,SystemResetWarning,0831.1,5.00,000.00,027.7,026.2,000.0,036.0,029.3,14.7,0000.0,0010.23,0003.52,0002.70
2023-09-18 17:10:00,SystemResetWarning,0831.1,5.00,000.00,027.7,026.5,000.0,036.0,029.4,15.0,0000.0,0010.48,0003.50,0002.69
2023-09-18 17:11:00,SystemResetWarning,0831.1,4.99,000.00,027.8,026.7,000.0,036.0,029.4,15.8,0000.0,0009.59,0003.46,0002.70
2023-09-18 17:12:00,SystemResetWarning,0831.1,4.99,000.00,027.8,026.8,000.0,036.1,029.5,16.0,0000.0,0009.44,0003.44,0002.71
2023-09-18 17:13:00,SystemResetWarning,0831.1,4.99,000.00,027.8,026.0,000.0,036.0,029.3,15.3,0000.0,0009.56,0003.45,0002.72
2023-09-18 17:14:00,SystemResetWarning,0831.1,5.01,000.00,027.7,024.5,000.0,036.0,028.9,15.7,0000.0,0010.97,0003.45,0002.74
2023-09-18 17:15:00,SystemResetWarning,0831.0,5.01,000.00,027.6,024.3,000.0,035.9,028.9,15.7,0000.0,0011.18,0003.44,0002.74
2023-09-18 17:16:00,SystemResetWarning,0831.1,5.01,000.00,027.6,024.6,000.0,035.9,028.9,16.2,0000.0,0011.22,0003.45,0002.74
2023-09-18 17:17:00,SystemResetWarning,0831.1,5.00,000.00,027.6,024.9,000.0,035.9,029.0,15.3,0000.0,0011.22,0003.44,0002.75
2023-09-18 17:18:00,SystemResetWarning,0831.1,5.00,000.00,027.6,025.3,000.0,035.9,029.1,15.3,0000.0,0010.96,0003.41,0002.75
2023-09-18 17:19:00,SystemResetWarning,0831.0,5.01,000.00,027.6,025.7,000.0,035.9,029.1,15.7,0000.0,0010.13,0003.40,0002.75
2023-09-18 17:20:00,SystemResetWarning,0831.1,5.00,000.00,027.6,026.0,000.0,036.0,029.2,15.1,0000.0,0009.96,0003.38,0002.73
2023-09-18 17:21:00,SystemResetWarning,0831.0,5.00,000.00,027.7,026.2,000.0,036.0,029.3,15.4,0000.0,0009.24,0003.35,0002.70
2023-09-18 17:22:00,SystemResetWarning,0831.0,4.99,000.00,027.7,026.5,000.0,036.0,029.4,15.5,0000.0,0009.09,0003.39,0002.67
2023-09-18 17:23:00,SystemResetWarning,0831.0,4.99,000.00,027.8,026.7,000.0,036.0,029.4,15.3,0000.0,0009.08,0003.39,0002.65
2023-09-18 17:24:00,SystemResetWarning,0831.0,4.99,000.00,027.8,026.7,000.0,036.0,029.5,15.1,0000.0,0008.94,0003.37,0002.64
2023-09-18 17:25:00,SystemResetWarning,0831.0,5.00,000.00,027.8,025.6,000.0,036.0,029.1,15.3,0000.0,0006.85,0003.33,0002.62
2023-09-18 17:26:00,SystemResetWarning,0830.9,5.00,000.00,027.6,024.4,000.0,035.9,028.8,15.9,0000.0,0005.81,0003.28,0002.61
2023-09-18 17:27:00,SystemResetWarning,0830.9,5.00,000.00,027.6,024.5,000.0,035.9,028.9,15.7,0000.0,0006.62,0003.25,0002.61
2023-09-18 17:28:00,SystemResetWarning,0830.9,5.01,000.00,027.6,024.8,000.0,035.9,028.9,15.6,0000.0,0006.61,0003.25,0002.60
2023-09-18 17:29:00,SystemResetWarning,0830.9,5.00,000.00,027.6,025.1,000.0,035.9,029.0,15.7,0000.0,0006.69,0003.28,0002.59
2023-09-18 17:30:00,SystemResetWarning,0830.9,5.00,000.00,027.6,025.5,000.0,035.9,029.1,15.5,0000.0,0006.57,0003.27,0002.59
2023-09-18 17:31:00,SystemResetWarning,0830.9,4.99,000.00,027.6,025.9,000.0,035.9,029.2,15.5,0000.0,0006.67,0003.27,0002.59
2023-09-18 17:32:00,SystemResetWarning,0830.9,5.00,000.00,027.7,026.2,000.0,036.0,029.3,15.3,0000.0,0007.58,0003.27,0002.61
2023-09-18 17:33:00,SystemResetWarning,0830.9,5.00,000.00,027.7,026.4,000.0,036.0,029.4,14.8,0000.0,0007.96,0003.24,0002.63
2023-09-18 17:34:00,SystemResetWarning,0830.9,5.00,000.00,027.8,026.6,000.0,036.0,029.4,15.3,0000.0,0008.31,0003.22,0002.64
2023-09-18 17:35:00,SystemResetWarning,0830.9,4.98,000.00,027.7,025.7,000.0,036.0,029.2,15.0,0000.0,0008.25,0003.21,0002.63
2023-09-18 17:36:00,SystemResetWarning,0830.9,5.00,000.00,027.6,024.4,000.0,035.9,028.8,14.7,0000.0,0008.22,0003.22,0002.63
2023-09-18 17:37:00,SystemResetWarning,0830.8,5.01,000.00,027.5,024.4,000.0,035.9,028.9,14.7,0000.0,0008.19,0003.22,0002.63
2023-09-18 17:38:00,SystemResetWarning,0830.8,5.01,000.00,027.5,024.7,000.0,035.9,028.9,15.4,0000.0,0007.53,0003.21,0002.62
2023-09-18 17:39:00,SystemResetWarning,0830.8,4.99,000.00,027.5,025.1,000.0,035.9,029.0,16.2,0000.0,0007.50,0003.18,0002.61
2023-09-18 17:40:00,SystemResetWarning,0830.9,5.00,000.00,027.5,025.5,000.0,035.9,029.0,15.7,0000.0,0007.68,0003.14,0002.61
2023-09-18 17:41:00,SystemResetWarning,0830.9,5.00,000.00,027.6,025.8,000.0,035.9,029.1,15.6,0000.0,0007.63,0003.13,0002.60
2023-09-18 17:42:00,SystemResetWarning,0830.8,5.01,000.00,027.6,026.1,000.0,035.9,029.2,16.2,0000.0,0007.77,0003.14,0002.59
2023-09-18 17:43:00,SystemResetWarning,0830.7,5.00,000.00,027.7,026.4,000.0,035.9,029.3,16.0,0000.0,0007.57,0003.14,0002.59
2023-09-18 17:44:00,SystemResetWarning,0830.8,5.00,000.00,027.7,026.6,000.0,035.9,029.4,14.7,0000.0,0007.11,0003.14,0002.58
2023-09-18 17:45:00,SystemResetWarning,0830.8,5.00,000.00,027.8,026.8,000.0,036.0,029.5,14.6,0000.0,0006.53,0003.14,0002.57
2023-09-18 17:46:00,SystemResetWarning,0830.8,4.99,000.00,027.8,026.1,000.0,035.9,029.3,14.8,0000.0,0006.62,0003.15,0002.58
2023-09-18 17:47:00,SystemResetWarning,0830.7,5.01,000.00,027.7,024.6,000.0,035.9,028.9,15.1,0000.0,0006.92,0003.17,0002.58
2023-09-18 17:48:00,SystemResetWarning,0830.7,5.01,000.00,027.6,024.4,000.0,035.8,028.9,15.0,0000.0,0006.92,0003.17,0002.59
2023-09-18 17:49:00,SystemResetWarning,0830.7,5.01,000.00,027.5,024.7,000.0,035.8,028.9,14.6,0000.0,0007.09,0003.19,0002.59
2023-09-18 17:50:00,SystemResetWarning,0830.7,5.00,000.00,027.5,025.0,000.0,035.9,029.0,14.5,0000.0,0007.18,0003.22,0002.60
2023-09-18 17:51:00,SystemResetWarning,0830.7,4.99,000.00,027.5,025.4,000.0,035.9,029.1,14.7,0000.0,0006.83,0003.22,0002.59
2023-09-18 17:52:00,SystemResetWarning,0830.7,5.00,000.00,027.6,025.8,000.0,035.9,029.2,14.9,0000.0,0007.08,0003.24,0002.59
2023-09-18 17:53:00,SystemResetWarning,0830.7,5.01,000.00,027.6,026.1,000.0,035.9,029.3,14.7,0000.0,0006.91,0003.23,0002.59
2023-09-18 17:54:00,SystemResetWarning,0830.7,4.99,000.00,027.7,026.4,000.0,035.9,029.4,15.3,0000.0,0005.80,0003.20,0002.58
2023-09-18 17:55:00,SystemResetWarning,0830.7,5.00,000.00,027.7,026.6,000.0,036.0,029.4,14.7,0000.0,0005.65,0003.19,0002.59
2023-09-18 17:56:00,SystemResetWarning,0830.7,5.00,000.00,027.8,026.7,000.0,036.0,029.5,14.6,0000.0,0005.36,0003.18,0002.60
2023-09-18 17:57:00,SystemResetWarning,0830.7,4.99,000.00,027.7,025.5,000.0,035.9,029.1,14.8,0000.0,0005.24,0003.16,0002.59
2023-09-18 17:58:00,SystemResetWarning,0830.6,5.01,000.00,027.6,024.4,000.0,035.9,028.8,15.5,0000.0,0004.95,0003.15,0002.61
2023-09-18 17:59:00,SystemResetWarning,0830.7,5.01,000.00,027.6,024.4,000.0,035.9,028.9,15.6,0000.0,0004.89,0003.14,0002.60
